Preview of NWS' New Version of Forecast
This preview is not operational and should not be used for support decisions.

Regional Weather Roundup (RWR)

Issued by Tampa Bay Area, FL (TBW)

                            
000
NZUS99 KTBW 200716
RWRTBW
Regional Weather Roundup National Weather Service Ruskin Florida
300 AM EDT MON MAY 20 2019

  
CITY           SKY/WX    TMP DP  RH WIND       PRES   REMARKS
Cross City     FAIR      66  64  93 CALM      30.02F                  
Williston      CLOUDY    66  62  87 CALM      30.03S                  
Gainesville    FAIR      73  69  87 CALM      30.05S                  
Ocala          FAIR      70  65  84 CALM      30.03S                  
Crystal River  FAIR      68  63  83 CALM      30.02F                  
Inverness      FAIR      68  68 100 CALM      30.03S                  
Leesburg       FAIR      75  71  87 SE6       30.03F                  
Orlando        FAIR      72  69  90 S3        30.02F                  
Brooksville    FAIR      71  67  87 E5        30.02F                  
Lakeland       FAIR      73  68  83 SE3       30.03                   
Winter Haven   FAIR      74  71  91 E5        30.03F                  
Bartow         FAIR      72  68  88 CALM      30.01F                  

CITY           SKY/WX    TMP DP  RH WIND       PRES   REMARKS
Tampa Intl     MOCLDY    79  68  69 VRB3      30.01F                  
Tampa Exec     FAIR      72  68  88 CALM      30.02F                  
MacDill AFB    CLOUDY    77  69  76 E6        30.00F                  
Peter O Knight CLOUDY    77  72  83 E7        30.01F                  
Plant City     FAIR      75  70  83 E6        30.03F                  
Clearwater     FAIR      75  69  81 E5        30.00F                  
St Petersburg  FAIR      78  69  73 E10       29.99F                  
Sarasota       FAIR      74  68  81 NE5       29.97F                  
Sebring        FAIR      71  69  95 NE3       30.02S                  
Punta Gorda    FAIR      72  68  87 SE7       30.00F                  
Ft Myers       FAIR      73  68  84 SE5       29.99F                  
Ft Myers-RSW   FAIR      74  67  78 SE3       30.00F                  
Naples         FAIR      76  67  73 CALM      29.99F                  

STATION/POSITION SKY/WX   TEMP WIND        PRES    VSBY
                          AIR  DIR/SP/G
                          (F)  (DEG/KT/KT) (MB)    (MI)
Keaton Beach               71   60/  6/  7 1016.8R
Sand Key                   80              1015.0F
Venice                     74   70/  6/  8 1015.2F
Cedar Key                  78   70/  3/  5 1016.6F

CITY           SKY/WX    TMP DP  RH WIND       PRES   REMARKS
Tallahassee    FAIR      66  65  96 CALM      30.02S                  
Daytona Beach  FAIR      72  72 100 CALM      30.02F                  
Melbourne      MOCLDY    78  70  76 SE7       30.01F                  
W Palm Beach   FAIR      78  69  73 SE6       30.00F                  
Miami          FAIR      79  70  74 E3        29.99F                  
Key West       FAIR      80  71  74 E7        29.98F                  
San Juan, PR   MOCLDY    79  72  78 SE3       29.96F                  
Cancun, MX     PTCLDY    81  75  83 E14       29.91